GFSNGP_prec_precacc_204.txt.gz
Total_Precipitation_Accumulation
0.61 0.70 0.59 1.05 1.05 1.06 0.86 0.81 1.25 1.16 0.62 0.54 0.47 0.87 0.95 0.67 0.65 0.55 0.73 0.56 0.52 0.47 0.56 0.90 1.28 1.51 1.74 1.64 1.59 1.73 1.84 1.56 1.21 1.21 1.11 1.08 1.14 1.12 1.03 0.91 1.10 1.68 1.70 1.74
1.50 0.90 0.42 0.94 1.09 0.91 0.62 0.71 0.78 0.56 0.59 0.45 0.35 0.52 0.92 0.82 0.77 0.53 0.58 0.85 0.63 0.52 0.50 0.56 0.67 0.93 1.06 1.14 1.19 1.22 1.27 1.26 1.26 1.12 1.16 1.17 1.03 0.95 0.67 0.61 0.64 0.84 1.05 1.14
0.99 0.55 0.49 0.93 0.87 0.51 0.32 0.27 0.35 0.38 0.40 0.31 0.36 0.48 0.66 0.77 0.81 0.74 0.71 0.75 0.79 0.87 0.78 0.77 0.70 0.73 0.88 1.02 1.00 1.31 1.20 1.08 0.89 1.04 1.13 1.17 1.14 1.13 1.14 1.08 0.91 0.78 0.79 0.81
0.97 0.65 1.32 1.00 0.40 0.32 0.32 0.32 0.27 0.30 0.31 0.36 0.54 0.67 0.72 0.86 1.11 0.88 0.78 0.90 0.97 1.01 0.97 0.94 0.77 0.74 0.95 1.18 1.25 1.19 1.14 1.28 1.03 0.94 1.08 1.22 1.22 1.18 1.37 1.34 1.12 1.05 0.97 0.81
1.10 0.77 0.60 0.27 0.16 0.25 0.34 0.32 0.36 0.55 0.73 0.71 0.68 0.93 1.25 1.35 1.40 1.29 0.97 0.75 0.76 0.92 1.00 0.74 0.77 0.72 0.78 0.82 1.22 1.56 1.57 1.55 1.52 1.15 1.10 1.26 1.47 1.44 1.24 1.16 1.19 1.17 1.13 1.13
1.28 1.26 0.67 0.22 0.13 0.07 0.13 0.43 0.43 0.78 1.24 1.14 1.18 1.29 1.19 1.02 1.43 1.25 0.79 0.45 0.34 0.33 0.46 0.76 0.75 0.61 0.63 0.71 0.73 1.17 1.83 1.72 1.80 1.86 1.76 1.85 1.76 1.62 1.69 1.61 1.48 1.40 1.35 1.25
1.43 1.70 0.57 0.08 0.15 0.20 0.72 1.00 0.72 0.69 0.85 1.25 1.45 1.54 1.33 1.14 1.20 0.94 0.74 0.29 0.09 0.04 0.03 0.08 0.32 0.52 0.47 0.48 0.67 0.73 1.07 1.69 1.69 1.86 1.72 1.60 1.72 1.78 1.89 2.12 2.21 2.06 1.91 1.61
1.23 1.55 0.93 0.33 0.52 0.97 1.05 0.79 0.56 0.45 0.29 0.36 0.57 0.62 0.62 0.80 0.76 0.52 0.31 0.07 0.00 0.00 0.01 0.02 0.03 0.07 0.20 0.31 0.36 0.44 0.54 0.72 1.15 1.20 1.11 1.23 1.22 1.24 1.32 1.32 1.45 1.54 1.55 1.63
0.89 0.76 0.69 0.62 0.89 0.76 0.74 0.80 0.46 0.31 0.25 0.36 0.34 0.36 0.47 0.41 0.22 0.09 0.05 0.03 0.01 0.01 0.02 0.03 0.03 0.02 0.04 0.08 0.10 0.13 0.20 0.29 0.55 0.90 0.91 0.80 0.98 0.98 0.83 0.83 0.82 0.86 0.89 0.93
1.18 0.96 1.02 1.07 0.62 0.40 0.54 0.55 0.37 0.25 0.19 0.16 0.12 0.15 0.22 0.18 0.14 0.11 0.08 0.03 0.03 0.02 0.01 0.01 0.04 0.18 0.13 0.06 0.04 0.05 0.08 0.11 0.15 0.41 0.79 0.64 0.61 0.63 0.66 0.69 0.70 0.77 0.81 0.82
1.96 1.44 1.13 0.98 0.96 0.77 0.48 0.21 0.21 0.23 0.19 0.16 0.12 0.12 0.13 0.14 0.27 0.30 0.24 0.12 0.02 0.02 0.02 0.00 0.02 0.08 0.41 0.28 0.08 0.07 0.09 0.14 0.18 0.14 0.28 0.54 0.51 0.54 0.49 0.70 0.82 0.90 1.09 1.16
2.05 1.39 1.36 1.06 0.53 0.40 0.39 0.34 0.20 0.10 0.10 0.07 0.04 0.03 0.07 0.13 0.27 0.28 0.26 0.16 0.06 0.02 0.02 0.02 0.03 0.05 0.08 0.40 0.26 0.15 0.19 0.20 0.36 0.33 0.31 0.43 0.60 0.70 0.75 0.61 0.54 0.57 0.71 0.83
0.98 1.16 1.08 0.83 0.49 0.31 0.26 0.12 0.05 0.08 0.16 0.30 0.32 0.11 0.10 0.14 0.22 0.29 0.11 0.08 0.05 0.09 0.06 0.05 0.07 0.12 0.15 0.25 0.47 0.40 0.33 0.36 0.37 0.46 0.43 0.45 0.61 0.67 0.82 1.04 0.96 1.03 1.14 1.22
0.58 0.82 0.60 0.28 0.20 0.09 0.04 0.02 0.03 0.02 0.03 0.08 0.23 0.30 0.20 0.15 0.19 0.22 0.17 0.06 0.05 0.04 0.07 0.09 0.17 0.33 0.43 0.55 0.72 1.00 1.05 1.14 1.13 1.24 1.24 1.10 1.05 1.10 1.13 1.12 1.26 1.50 1.44 1.25
0.38 0.35 0.32 0.17 0.06 0.03 0.02 0.04 0.05 0.07 0.13 0.18 0.14 0.09 0.11 0.15 0.10 0.15 0.18 0.21 0.10 0.10 0.14 0.18 0.25 0.39 0.47 0.50 0.63 0.83 1.00 1.06 1.08 1.14 1.21 1.16 1.07 1.01 1.01 0.98 0.86 0.87 0.84 0.78
0.05 0.09 0.11 0.10 0.08 0.05 0.05 0.07 0.14 0.30 0.26 0.16 0.09 0.07 0.06 0.07 0.09 0.09 0.10 0.30 0.31 0.22 0.24 0.31 0.40 0.48 0.39 0.30 0.34 0.52 0.78 0.90 0.78 0.82 0.96 0.98 0.97 0.87 0.83 0.79 0.74 0.70 0.67 0.73
0.08 0.10 0.12 0.11 0.15 0.18 0.26 0.32 0.36 0.32 0.19 0.11 0.13 0.14 0.11 0.08 0.08 0.12 0.17 0.22 0.40 0.44 0.45 0.53 0.73 0.76 0.74 0.78 0.80 0.97 1.03 1.12 1.01 0.86 0.88 0.89 0.84 0.77 0.66 0.58 0.55 0.53 0.59 0.58
0.13 0.21 0.23 0.25 0.41 0.47 0.37 0.26 0.19 0.16 0.16 0.18 0.17 0.19 0.27 0.22 0.28 0.33 0.39 0.33 0.39 0.56 0.74 0.94 1.12 1.14 1.11 1.07 0.96 0.98 0.95 0.91 0.84 0.78 0.69 0.67 0.63 0.58 0.58 0.55 0.50 0.45 0.44 0.34
0.16 0.28 0.34 0.35 0.31 0.25 0.18 0.19 0.22 0.26 0.31 0.33 0.37 0.47 0.50 0.58 0.60 0.74 0.80 0.78 0.95 1.02 1.29 1.16 1.14 1.11 1.05 0.99 0.80 0.75 0.72 0.60 0.51 0.51 0.47 0.45 0.43 0.43 0.41 0.36 0.32 0.30 0.31 0.33
0.21 0.17 0.16 0.14 0.11 0.12 0.16 0.22 0.25 0.34 0.49 0.52 0.63 0.80 0.94 1.18 1.16 1.19 1.15 1.18 1.22 1.19 1.06 0.85 0.69 0.68 0.74 0.69 0.55 0.47 0.48 0.48 0.39 0.34 0.30 0.27 0.27 0.27 0.25 0.24 0.29 0.36 0.37 0.37
0.46 0.42 0.42 0.42 0.50 0.57 0.63 0.75 0.70 0.89 1.14 1.08 0.92 1.00 1.03 1.19 1.15 1.13 0.98 0.99 1.13 0.80 0.59 0.46 0.37 0.37 0.37 0.41 0.42 0.41 0.38 0.36 0.34 0.31 0.30 0.31 0.29 0.31 0.37 0.37 0.35 0.35 0.38 0.37
0.64 0.63 0.72 0.75 0.69 0.89 1.07 0.99 0.79 0.80 0.80 0.79 0.77 0.77 0.67 0.76 0.67 0.59 0.60 0.65 0.77 0.62 0.51 0.37 0.25 0.21 0.19 0.22 0.26 0.30 0.31 0.33 0.35 0.36 0.40 0.41 0.42 0.40 0.35 0.30 0.31 0.31 0.32 0.33
0.64 0.60 0.60 0.62 0.57 0.64 0.79 0.77 0.68 0.55 0.56 0.58 0.59 0.59 0.49 0.50 0.47 0.37 0.39 0.37 0.26 0.24 0.27 0.31 0.26 0.20 0.22 0.22 0.23 0.27 0.30 0.35 0.38 0.39 0.39 0.36 0.36 0.34 0.30 0.27 0.25 0.27 0.27 0.27
0.60 0.58 0.61 0.61 0.45 0.31 0.40 0.57 0.45 0.42 0.38 0.36 0.34 0.32 0.24 0.22 0.27 0.20 0.18 0.16 0.12 0.11 0.10 0.11 0.15 0.16 0.23 0.29 0.30 0.33 0.34 0.35 0.30 0.31 0.31 0.31 0.31 0.29 0.29 0.24 0.22 0.22 0.22 0.23
0.53 0.53 0.54 0.49 0.38 0.45 0.40 0.39 0.26 0.25 0.18 0.16 0.15 0.13 0.12 0.12 0.21 0.17 0.10 0.08 0.09 0.12 0.14 0.11 0.13 0.16 0.31 0.34 0.33 0.32 0.31 0.31 0.27 0.29 0.28 0.28 0.27 0.28 0.27 0.25 0.24 0.23 0.23 0.21
0.43 0.41 0.43 0.39 0.38 0.33 0.28 0.20 0.18 0.18 0.13 0.14 0.19 0.17 0.15 0.14 0.14 0.14 0.14 0.14 0.13 0.13 0.21 0.23 0.25 0.26 0.31 0.33 0.35 0.33 0.31 0.25 0.22 0.24 0.26 0.25 0.24 0.24 0.24 0.23 0.22 0.22 0.24 0.24
0.36 0.35 0.26 0.20 0.20 0.19 0.19 0.20 0.19 0.20 0.21 0.23 0.27 0.25 0.22 0.22 0.20 0.19 0.22 0.25 0.26 0.28 0.31 0.32 0.30 0.28 0.28 0.31 0.30 0.27 0.28 0.26 0.23 0.21 0.22 0.22 0.23 0.23 0.23 0.23 0.23 0.23 0.21 0.21

GFSNGP_prec_precacc_207.txt.gz
Total_Precipitation_Accumulation
0.61 0.70 0.59 1.05 1.05 1.06 0.86 0.81 1.25 1.17 0.63 0.54 0.48 0.88 0.95 0.67 0.65 0.55 0.73 0.57 0.56 0.62 0.58 0.91 1.29 1.51 1.74 1.64 1.59 1.78 1.91 1.58 1.21 1.21 1.11 1.08 1.15 1.14 1.05 0.94 1.14 1.74 1.79 1.82
1.50 0.90 0.42 0.94 1.09 0.91 0.62 0.71 0.78 0.56 0.60 0.47 0.37 0.52 0.92 0.82 0.77 0.53 0.59 0.86 0.67 0.53 0.51 0.57 0.67 0.93 1.06 1.14 1.20 1.22 1.27 1.26 1.26 1.12 1.16 1.18 1.07 1.07 0.78 0.72 0.74 0.91 1.13 1.24
0.99 0.55 0.49 0.93 0.87 0.51 0.32 0.27 0.36 0.41 0.43 0.31 0.36 0.48 0.66 0.77 0.81 0.78 0.78 0.83 0.84 0.91 0.82 0.80 0.70 0.73 0.88 1.02 1.00 1.31 1.20 1.08 0.89 1.04 1.14 1.22 1.22 1.27 1.33 1.27 1.08 0.96 0.94 0.93
0.97 0.65 1.33 1.00 0.40 0.32 0.33 0.33 0.28 0.30 0.31 0.36 0.54 0.67 0.72 0.91 1.50 1.34 0.92 0.95 1.03 1.07 0.99 0.94 0.77 0.74 0.95 1.18 1.25 1.19 1.14 1.28 1.04 0.96 1.12 1.29 1.31 1.29 1.50 1.51 1.31 1.22 1.18 0.97
1.10 0.77 0.60 0.27 0.16 0.25 0.34 0.32 0.36 0.55 0.73 0.71 0.68 0.93 1.25 1.44 1.72 1.48 1.04 0.77 0.78 0.94 1.00 0.74 0.77 0.72 0.78 0.82 1.22 1.56 1.57 1.56 1.55 1.19 1.16 1.33 1.55 1.54 1.35 1.32 1.40 1.38 1.32 1.28
1.28 1.26 0.67 0.22 0.15 0.08 0.13 0.43 0.43 0.78 1.24 1.15 1.21 1.37 1.20 1.04 1.52 1.29 0.80 0.45 0.34 0.33 0.46 0.76 0.75 0.61 0.63 0.71 0.73 1.17 1.83 1.72 1.84 1.89 1.82 1.91 1.82 1.70 1.80 1.74 1.65 1.58 1.50 1.37
1.46 1.77 0.62 0.11 0.15 0.21 0.74 1.01 0.72 0.69 0.86 1.26 1.53 1.68 1.41 1.17 1.22 0.94 0.74 0.29 0.09 0.05 0.03 0.08 0.32 0.52 0.47 0.48 0.67 0.73 1.07 1.69 1.73 1.92 1.77 1.64 1.78 1.87 2.00 2.25 2.35 2.21 2.05 1.77
1.25 1.60 0.96 0.34 0.53 0.97 1.05 0.79 0.56 0.45 0.29 0.38 0.60 0.65 0.64 0.81 0.76 0.52 0.31 0.07 0.00 0.00 0.01 0.02 0.04 0.07 0.20 0.31 0.36 0.44 0.54 0.72 1.16 1.26 1.17 1.26 1.27 1.33 1.44 1.43 1.56 1.66 1.70 1.77
0.89 0.76 0.69 0.62 0.89 0.76 0.74 0.80 0.46 0.31 0.25 0.40 0.38 0.37 0.47 0.41 0.22 0.09 0.05 0.03 0.01 0.01 0.02 0.03 0.04 0.02 0.04 0.08 0.10 0.13 0.20 0.29 0.56 0.94 1.03 0.87 1.03 1.07 0.94 0.94 0.89 0.95 0.97 0.98
1.19 0.96 1.02 1.07 0.62 0.40 0.54 0.55 0.37 0.25 0.22 0.18 0.14 0.15 0.22 0.18 0.14 0.11 0.08 0.03 0.03 0.02 0.02 0.03 0.06 0.19 0.13 0.06 0.04 0.05 0.08 0.11 0.15 0.42 0.86 0.75 0.69 0.68 0.71 0.75 0.77 0.84 0.87 0.85
1.96 1.44 1.13 0.98 0.96 0.77 0.48 0.21 0.21 0.24 0.20 0.17 0.12 0.12 0.13 0.14 0.27 0.30 0.24 0.12 0.02 0.02 0.03 0.03 0.07 0.12 0.42 0.29 0.08 0.07 0.09 0.14 0.18 0.15 0.30 0.61 0.63 0.64 0.55 0.76 0.87 0.94 1.12 1.18
2.05 1.39 1.36 1.06 0.53 0.40 0.39 0.35 0.21 0.11 0.10 0.07 0.04 0.03 0.07 0.13 0.27 0.28 0.26 0.16 0.06 0.02 0.02 0.02 0.03 0.06 0.08 0.40 0.27 0.15 0.19 0.20 0.36 0.33 0.33 0.46 0.65 0.82 0.85 0.66 0.57 0.59 0.71 0.83
0.99 1.16 1.08 0.83 0.49 0.32 0.27 0.13 0.05 0.08 0.16 0.30 0.32 0.11 0.10 0.14 0.22 0.29 0.11 0.08 0.05 0.09 0.06 0.05 0.07 0.12 0.15 0.25 0.48 0.40 0.33 0.36 0.37 0.47 0.45 0.49 0.64 0.70 0.95 1.11 0.98 1.03 1.14 1.22
0.58 0.82 0.61 0.30 0.22 0.11 0.04 0.02 0.03 0.02 0.03 0.08 0.23 0.30 0.20 0.15 0.19 0.22 0.17 0.06 0.05 0.05 0.07 0.09 0.17 0.33 0.43 0.55 0.72 1.00 1.05 1.14 1.13 1.25 1.25 1.15 1.09 1.14 1.24 1.24 1.32 1.52 1.45 1.25
0.38 0.35 0.33 0.18 0.06 0.03 0.02 0.04 0.05 0.07 0.13 0.18 0.14 0.09 0.11 0.15 0.10 0.15 0.18 0.21 0.10 0.10 0.14 0.18 0.25 0.39 0.47 0.50 0.63 0.83 1.00 1.06 1.08 1.14 1.23 1.21 1.12 1.05 1.12 1.12 0.99 0.92 0.88 0.83
0.05 0.09 0.12 0.10 0.08 0.05 0.05 0.07 0.14 0.30 0.26 0.16 0.09 0.07 0.06 0.07 0.10 0.10 0.10 0.30 0.31 0.23 0.24 0.31 0.40 0.48 0.39 0.30 0.35 0.56 0.85 0.99 0.85 0.86 1.00 1.04 1.03 0.92 0.90 0.89 0.86 0.81 0.73 0.77
0.08 0.10 0.12 0.11 0.15 0.18 0.26 0.32 0.36 0.32 0.19 0.11 0.13 0.14 0.11 0.08 0.08 0.13 0.17 0.22 0.40 0.45 0.45 0.53 0.74 0.76 0.75 0.80 0.84 1.03 1.11 1.20 1.09 0.92 0.92 0.94 0.88 0.81 0.72 0.63 0.63 0.63 0.64 0.60
0.13 0.21 0.23 0.25 0.41 0.47 0.37 0.26 0.19 0.16 0.16 0.18 0.17 0.19 0.27 0.22 0.28 0.34 0.39 0.33 0.39 0.56 0.74 0.94 1.13 1.14 1.12 1.11 1.01 1.03 1.01 0.98 0.95 0.88 0.75 0.73 0.69 0.65 0.67 0.64 0.58 0.52 0.49 0.38
0.16 0.28 0.34 0.35 0.31 0.25 0.18 0.19 0.22 0.26 0.31 0.33 0.37 0.47 0.50 0.58 0.60 0.74 0.80 0.78 0.96 1.02 1.29 1.16 1.14 1.11 1.06 1.02 0.85 0.79 0.78 0.72 0.64 0.67 0.60 0.54 0.52 0.52 0.53 0.47 0.42 0.35 0.34 0.37
0.22 0.17 0.16 0.14 0.11 0.12 0.16 0.22 0.25 0.34 0.49 0.52 0.63 0.80 0.94 1.18 1.16 1.19 1.15 1.18 1.22 1.19 1.06 0.85 0.70 0.68 0.74 0.71 0.59 0.55 0.62 0.60 0.51 0.46 0.41 0.36 0.33 0.33 0.32 0.33 0.36 0.41 0.40 0.38
0.46 0.42 0.42 0.42 0.50 0.57 0.63 0.75 0.70 0.89 1.14 1.08 0.92 1.00 1.03 1.19 1.15 1.13 0.98 1.00 1.13 0.80 0.59 0.47 0.38 0.38 0.38 0.44 0.47 0.49 0.52 0.51 0.46 0.43 0.39 0.37 0.33 0.34 0.40 0.41 0.38 0.37 0.39 0.38
0.64 0.63 0.72 0.75 0.69 0.89 1.07 0.99 0.79 0.80 0.80 0.79 0.77 0.77 0.67 0.76 0.67 0.59 0.60 0.66 0.77 0.62 0.51 0.37 0.26 0.22 0.20 0.24 0.30 0.37 0.39 0.42 0.46 0.47 0.50 0.52 0.52 0.47 0.39 0.32 0.31 0.32 0.33 0.33
0.64 0.60 0.60 0.62 0.57 0.64 0.79 0.77 0.68 0.55 0.56 0.58 0.59 0.59 0.49 0.50 0.47 0.37 0.39 0.37 0.26 0.24 0.27 0.31 0.27 0.21 0.23 0.24 0.27 0.33 0.37 0.43 0.46 0.48 0.47 0.44 0.44 0.41 0.36 0.31 0.29 0.29 0.28 0.27
0.60 0.58 0.61 0.61 0.45 0.31 0.40 0.57 0.45 0.42 0.38 0.36 0.34 0.32 0.24 0.22 0.27 0.20 0.18 0.16 0.12 0.11 0.10 0.11 0.15 0.16 0.23 0.29 0.31 0.37 0.40 0.41 0.37 0.39 0.39 0.38 0.38 0.36 0.35 0.29 0.26 0.25 0.24 0.23
0.53 0.53 0.54 0.50 0.38 0.45 0.40 0.39 0.26 0.25 0.18 0.16 0.15 0.13 0.12 0.12 0.21 0.17 0.10 0.08 0.09 0.12 0.14 0.11 0.13 0.16 0.31 0.34 0.34 0.33 0.35 0.36 0.33 0.34 0.33 0.33 0.33 0.33 0.32 0.29 0.26 0.25 0.24 0.22
0.43 0.41 0.43 0.39 0.38 0.33 0.29 0.20 0.19 0.18 0.13 0.14 0.19 0.17 0.15 0.14 0.14 0.14 0.14 0.14 0.13 0.13 0.21 0.23 0.25 0.26 0.31 0.34 0.36 0.34 0.33 0.28 0.27 0.28 0.29 0.28 0.28 0.28 0.27 0.26 0.24 0.23 0.25 0.24
0.36 0.35 0.26 0.21 0.20 0.20 0.21 0.21 0.19 0.20 0.21 0.23 0.27 0.25 0.22 0.22 0.20 0.19 0.22 0.25 0.26 0.28 0.31 0.32 0.30 0.29 0.29 0.31 0.31 0.29 0.30 0.28 0.27 0.25 0.24 0.23 0.25 0.25 0.25 0.25 0.24 0.23 0.21 0.21

GFSNGP_prec_precacc_210.txt.gz
Total_Precipitation_Accumulation
0.61 0.70 0.59 1.05 1.05 1.06 0.86 0.81 1.25 1.18 0.63 0.54 0.48 0.88 0.95 0.67 0.65 0.55 0.73 0.57 0.56 0.62 0.60 0.91 1.29 1.51 1.74 1.64 1.59 1.78 1.91 1.58 1.21 1.21 1.11 1.08 1.15 1.14 1.05 0.94 1.14 1.75 1.83 1.89
1.50 0.90 0.42 0.94 1.09 0.91 0.62 0.71 0.78 0.56 0.60 0.47 0.37 0.52 0.92 0.82 0.77 0.53 0.59 0.87 0.69 0.57 0.53 0.59 0.69 0.94 1.06 1.14 1.20 1.22 1.27 1.26 1.26 1.12 1.16 1.18 1.07 1.07 0.78 0.73 0.75 0.93 1.16 1.30
1.02 0.55 0.49 0.93 0.87 0.51 0.32 0.27 0.36 0.42 0.44 0.31 0.36 0.48 0.66 0.77 0.81 0.80 0.93 0.96 0.96 1.12 1.00 0.83 0.74 0.76 0.89 1.02 1.00 1.31 1.20 1.08 0.89 1.04 1.14 1.22 1.22 1.28 1.35 1.29 1.12 1.01 0.98 0.98
0.99 0.66 1.34 1.00 0.40 0.32 0.33 0.33 0.28 0.31 0.31 0.36 0.54 0.67 0.72 0.91 1.56 1.66 1.38 1.27 1.11 1.07 1.00 0.95 0.77 0.74 0.95 1.18 1.25 1.19 1.14 1.28 1.04 0.96 1.12 1.31 1.34 1.33 1.55 1.56 1.38 1.32 1.30 1.09
1.11 0.78 0.61 0.27 0.16 0.25 0.34 0.33 0.36 0.55 0.73 0.71 0.68 0.93 1.25 1.45 1.93 1.79 1.16 0.79 0.78 0.94 1.00 0.75 0.77 0.72 0.78 0.82 1.22 1.56 1.57 1.56 1.55 1.19 1.17 1.34 1.57 1.56 1.39 1.38 1.47 1.44 1.40 1.41
1.28 1.26 0.67 0.22 0.15 0.08 0.13 0.43 0.43 0.78 1.24 1.15 1.21 1.37 1.20 1.05 1.59 1.35 0.81 0.46 0.34 0.33 0.46 0.76 0.75 0.62 0.63 0.71 0.73 1.17 1.83 1.72 1.84 1.90 1.84 1.95 1.85 1.73 1.84 1.81 1.73 1.68 1.60 1.48
1.47 1.81 0.67 0.14 0.17 0.22 0.77 1.02 0.72 0.69 0.86 1.26 1.53 1.69 1.42 1.18 1.23 0.94 0.74 0.29 0.09 0.05 0.03 0.08 0.32 0.52 0.47 0.48 0.67 0.73 1.07 1.69 1.73 1.92 1.80 1.69 1.82 1.90 2.03 2.31 2.44 2.34 2.16 1.89
1.27 1.66 1.00 0.36 0.53 0.97 1.05 0.79 0.56 0.45 0.29 0.38 0.60 0.66 0.66 0.82 0.76 0.52 0.31 0.07 0.00 0.00 0.01 0.02 0.04 0.07 0.20 0.31 0.36 0.44 0.54 0.72 1.16 1.27 1.19 1.31 1.32 1.37 1.47 1.48 1.63 1.75 1.81 1.90
0.89 0.76 0.69 0.62 0.89 0.76 0.74 0.80 0.46 0.31 0.25 0.40 0.39 0.39 0.47 0.41 0.22 0.09 0.05 0.03 0.01 0.01 0.02 0.04 0.04 0.03 0.04 0.08 0.10 0.13 0.20 0.29 0.56 0.94 1.04 0.89 1.09 1.13 0.98 0.97 0.94 1.02 1.04 1.06
1.19 0.96 1.02 1.07 0.62 0.41 0.54 0.55 0.38 0.25 0.22 0.19 0.14 0.15 0.22 0.18 0.14 0.11 0.08 0.03 0.03 0.02 0.02 0.03 0.06 0.19 0.13 0.06 0.04 0.05 0.08 0.11 0.15 0.42 0.87 0.76 0.75 0.75 0.74 0.77 0.80 0.89 0.93 0.92
1.96 1.44 1.13 0.98 0.96 0.77 0.48 0.21 0.23 0.29 0.22 0.17 0.13 0.12 0.13 0.14 0.27 0.30 0.24 0.12 0.02 0.02 0.03 0.03 0.07 0.12 0.42 0.29 0.08 0.07 0.09 0.14 0.18 0.15 0.30 0.62 0.68 0.74 0.62 0.79 0.88 0.96 1.16 1.21
2.05 1.39 1.36 1.06 0.53 0.41 0.39 0.36 0.24 0.12 0.10 0.07 0.04 0.03 0.07 0.13 0.27 0.28 0.26 0.16 0.06 0.02 0.02 0.02 0.03 0.06 0.08 0.40 0.27 0.16 0.19 0.20 0.36 0.33 0.33 0.47 0.68 0.93 0.98 0.72 0.62 0.65 0.76 0.88
0.99 1.16 1.08 0.83 0.49 0.32 0.28 0.14 0.05 0.08 0.16 0.30 0.32 0.11 0.10 0.14 0.23 0.29 0.11 0.08 0.05 0.10 0.06 0.05 0.07 0.12 0.15 0.25 0.48 0.40 0.33 0.36 0.37 0.47 0.46 0.50 0.65 0.73 1.03 1.19 1.06 1.09 1.18 1.25
0.58 0.82 0.61 0.30 0.23 0.12 0.04 0.02 0.03 0.02 0.03 0.08 0.23 0.30 0.20 0.15 0.19 0.23 0.18 0.06 0.05 0.05 0.08 0.09 0.17 0.34 0.43 0.55 0.72 1.00 1.05 1.14 1.13 1.25 1.26 1.16 1.10 1.15 1.30 1.30 1.37 1.59 1.48 1.26
0.38 0.35 0.33 0.18 0.06 0.03 0.02 0.04 0.05 0.07 0.13 0.18 0.14 0.09 0.11 0.15 0.10 0.15 0.18 0.21 0.10 0.10 0.14 0.18 0.25 0.39 0.47 0.50 0.63 0.83 1.00 1.06 1.09 1.18 1.27 1.26 1.14 1.07 1.17 1.21 1.06 0.98 0.90 0.84
0.05 0.09 0.12 0.10 0.08 0.05 0.05 0.07 0.14 0.30 0.26 0.16 0.09 0.07 0.06 0.07 0.10 0.10 0.10 0.31 0.31 0.23 0.24 0.31 0.41 0.48 0.39 0.30 0.35 0.56 0.86 1.02 0.90 0.94 1.10 1.12 1.09 0.95 0.94 0.96 0.93 0.90 0.79 0.78
0.08 0.10 0.12 0.11 0.15 0.18 0.26 0.32 0.36 0.32 0.19 0.11 0.13 0.14 0.11 0.08 0.08 0.13 0.17 0.22 0.41 0.45 0.46 0.53 0.74 0.76 0.75 0.81 0.84 1.03 1.11 1.21 1.11 0.95 0.96 0.98 0.93 0.85 0.75 0.69 0.69 0.70 0.70 0.64
0.13 0.21 0.23 0.25 0.41 0.47 0.37 0.26 0.19 0.16 0.16 0.18 0.17 0.19 0.27 0.22 0.28 0.34 0.39 0.33 0.39 0.56 0.74 0.94 1.13 1.14 1.12 1.11 1.01 1.03 1.02 1.00 0.97 0.90 0.77 0.76 0.73 0.70 0.72 0.69 0.65 0.58 0.57 0.47
0.16 0.28 0.34 0.35 0.31 0.25 0.18 0.19 0.22 0.26 0.31 0.33 0.37 0.47 0.50 0.58 0.60 0.74 0.80 0.78 0.97 1.02 1.29 1.16 1.15 1.12 1.06 1.02 0.85 0.79 0.79 0.75 0.71 0.76 0.67 0.59 0.57 0.57 0.57 0.52 0.48 0.42 0.42 0.46
0.22 0.17 0.16 0.14 0.11 0.12 0.16 0.22 0.25 0.34 0.49 0.52 0.63 0.80 0.94 1.18 1.16 1.19 1.15 1.18 1.24 1.19 1.06 0.85 0.70 0.68 0.75 0.72 0.60 0.56 0.65 0.67 0.60 0.54 0.50 0.43 0.39 0.37 0.36 0.37 0.42 0.47 0.46 0.44
0.46 0.42 0.42 0.42 0.50 0.57 0.63 0.75 0.70 0.89 1.14 1.08 0.92 1.00 1.03 1.19 1.15 1.13 0.98 1.00 1.13 0.80 0.59 0.47 0.38 0.38 0.38 0.44 0.48 0.51 0.57 0.60 0.56 0.51 0.47 0.45 0.41 0.42 0.46 0.46 0.45 0.44 0.46 0.42
0.64 0.63 0.72 0.75 0.69 0.89 1.07 0.99 0.79 0.80 0.80 0.79 0.78 0.77 0.67 0.76 0.68 0.59 0.60 0.66 0.77 0.62 0.51 0.37 0.26 0.22 0.20 0.25 0.31 0.39 0.43 0.48 0.53 0.54 0.58 0.61 0.61 0.55 0.46 0.38 0.37 0.38 0.39 0.38
0.64 0.60 0.60 0.62 0.57 0.64 0.79 0.77 0.68 0.56 0.57 0.59 0.59 0.59 0.49 0.50 0.47 0.37 0.39 0.37 0.26 0.24 0.27 0.31 0.27 0.21 0.23 0.24 0.28 0.35 0.41 0.48 0.53 0.54 0.53 0.50 0.51 0.48 0.43 0.38 0.35 0.33 0.32 0.31
0.60 0.58 0.61 0.61 0.45 0.31 0.41 0.57 0.46 0.43 0.39 0.37 0.35 0.32 0.24 0.22 0.27 0.20 0.18 0.16 0.12 0.11 0.10 0.11 0.15 0.16 0.23 0.30 0.32 0.38 0.43 0.46 0.44 0.45 0.45 0.44 0.44 0.41 0.40 0.33 0.31 0.30 0.27 0.26
0.53 0.53 0.54 0.50 0.38 0.45 0.40 0.39 0.26 0.25 0.18 0.16 0.15 0.13 0.12 0.12 0.21 0.17 0.10 0.08 0.09 0.12 0.14 0.11 0.13 0.16 0.31 0.34 0.34 0.34 0.36 0.38 0.38 0.40 0.39 0.38 0.38 0.38 0.36 0.33 0.30 0.29 0.27 0.24
0.43 0.42 0.43 0.39 0.38 0.34 0.30 0.21 0.20 0.19 0.14 0.15 0.19 0.17 0.15 0.14 0.14 0.14 0.14 0.14 0.13 0.13 0.21 0.23 0.25 0.26 0.31 0.34 0.36 0.34 0.34 0.29 0.30 0.32 0.34 0.33 0.32 0.32 0.32 0.30 0.29 0.29 0.29 0.26
0.38 0.36 0.26 0.21 0.20 0.21 0.22 0.23 0.21 0.21 0.21 0.23 0.27 0.25 0.22 0.22 0.20 0.19 0.22 0.25 0.26 0.28 0.31 0.32 0.30 0.29 0.29 0.31 0.31 0.29 0.31 0.29 0.29 0.27 0.26 0.26 0.28 0.28 0.28 0.29 0.27 0.26 0.25 0.24

GFSNGP_prec_precacc_216.txt.gz
Total_Precipitation_Accumulation
0.61 0.70 0.60 1.08 1.09 1.11 0.99 0.93 1.46 1.28 0.65 0.54 0.48 0.88 0.95 0.67 0.65 0.55 0.73 0.57 0.56 0.62 0.60 0.93 1.30 1.53 1.77 1.66 1.60 1.79 1.91 1.58 1.21 1.21 1.11 1.08 1.15 1.14 1.05 0.94 1.14 1.75 1.83 1.89
1.50 0.90 0.43 0.94 1.09 0.92 0.62 0.72 0.79 0.56 0.60 0.47 0.37 0.52 0.92 0.82 0.77 0.53 0.59 0.89 0.74 0.65 0.62 0.71 0.82 1.00 1.07 1.15 1.20 1.23 1.27 1.26 1.26 1.12 1.16 1.18 1.07 1.07 0.78 0.73 0.75 0.93 1.17 1.31
1.06 0.55 0.49 0.94 0.87 0.51 0.32 0.27 0.36 0.42 0.44 0.31 0.36 0.48 0.66 0.77 0.81 0.80 0.96 1.11 1.17 1.41 1.27 1.05 0.93 0.85 0.91 1.03 1.00 1.32 1.20 1.08 0.89 1.04 1.14 1.22 1.22 1.28 1.36 1.29 1.12 1.01 0.99 0.99
1.06 0.67 1.36 1.01 0.40 0.32 0.33 0.33 0.28 0.31 0.31 0.36 0.54 0.67 0.72 0.91 1.56 1.68 1.47 1.40 1.33 1.22 1.06 1.01 0.80 0.75 0.95 1.19 1.25 1.19 1.14 1.28 1.04 0.96 1.12 1.31 1.35 1.33 1.57 1.60 1.42 1.38 1.35 1.13
1.13 0.78 0.61 0.27 0.16 0.25 0.34 0.33 0.36 0.56 0.73 0.71 0.68 0.93 1.25 1.45 1.94 1.83 1.25 0.86 0.86 1.00 1.04 0.79 0.79 0.73 0.81 0.84 1.22 1.56 1.57 1.56 1.55 1.19 1.17 1.35 1.57 1.56 1.39 1.40 1.52 1.53 1.48 1.49
1.28 1.27 0.68 0.22 0.15 0.08 0.15 0.47 0.43 0.78 1.24 1.15 1.21 1.37 1.20 1.05 1.60 1.38 0.85 0.49 0.36 0.35 0.47 0.78 0.78 0.64 0.65 0.71 0.73 1.17 1.83 1.72 1.84 1.90 1.84 1.95 1.86 1.74 1.85 1.82 1.76 1.72 1.66 1.54
1.47 1.82 0.68 0.16 0.19 0.24 0.81 1.05 0.72 0.69 0.86 1.26 1.53 1.69 1.42 1.19 1.24 0.95 0.75 0.30 0.10 0.05 0.03 0.08 0.32 0.52 0.47 0.48 0.67 0.73 1.07 1.69 1.73 1.92 1.80 1.69 1.83 1.92 2.05 2.32 2.47 2.40 2.26 1.98
1.27 1.67 1.01 0.36 0.54 0.97 1.05 0.79 0.56 0.45 0.29 0.38 0.60 0.66 0.68 0.88 0.81 0.54 0.33 0.08 0.00 0.00 0.01 0.02 0.04 0.07 0.20 0.31 0.36 0.44 0.54 0.72 1.16 1.27 1.19 1.31 1.33 1.41 1.51 1.50 1.65 1.81 1.91 2.05
0.89 0.76 0.69 0.62 0.89 0.76 0.74 0.80 0.46 0.31 0.25 0.41 0.41 0.47 0.64 0.51 0.24 0.09 0.05 0.03 0.01 0.01 0.02 0.04 0.04 0.03 0.04 0.08 0.10 0.13 0.20 0.29 0.56 0.95 1.04 0.90 1.10 1.18 1.05 1.02 0.98 1.07 1.10 1.15
1.19 0.96 1.02 1.07 0.62 0.41 0.54 0.55 0.38 0.26 0.27 0.30 0.32 0.29 0.26 0.18 0.14 0.11 0.08 0.03 0.03 0.02 0.02 0.03 0.06 0.20 0.13 0.06 0.04 0.05 0.08 0.11 0.16 0.43 0.89 0.77 0.76 0.80 0.82 0.84 0.87 0.95 1.00 1.03
1.96 1.44 1.13 0.98 0.96 0.77 0.48 0.21 0.23 0.38 0.35 0.26 0.14 0.12 0.13 0.14 0.27 0.30 0.24 0.12 0.02 0.02 0.03 0.03 0.07 0.13 0.42 0.29 0.08 0.07 0.10 0.15 0.18 0.15 0.31 0.63 0.69 0.78 0.72 0.88 0.96 1.04 1.24 1.29
2.05 1.39 1.36 1.06 0.53 0.41 0.39 0.36 0.24 0.12 0.11 0.07 0.04 0.03 0.07 0.13 0.27 0.28 0.26 0.16 0.06 0.02 0.02 0.03 0.03 0.06 0.09 0.40 0.27 0.16 0.19 0.20 0.37 0.34 0.34 0.48 0.69 0.95 1.09 0.84 0.72 0.72 0.83 0.96
0.99 1.16 1.08 0.83 0.49 0.32 0.28 0.14 0.05 0.08 0.16 0.30 0.32 0.11 0.10 0.14 0.23 0.29 0.11 0.08 0.05 0.10 0.07 0.05 0.07 0.13 0.16 0.25 0.48 0.40 0.34 0.37 0.37 0.48 0.47 0.52 0.67 0.77 1.11 1.33 1.23 1.23 1.25 1.30
0.58 0.82 0.61 0.30 0.23 0.12 0.04 0.02 0.03 0.02 0.03 0.08 0.23 0.30 0.20 0.15 0.19 0.23 0.18 0.06 0.05 0.05 0.08 0.10 0.17 0.34 0.43 0.55 0.72 1.01 1.06 1.17 1.15 1.25 1.27 1.19 1.14 1.21 1.37 1.39 1.49 1.74 1.64 1.34
0.38 0.35 0.33 0.18 0.06 0.03 0.02 0.04 0.05 0.07 0.13 0.18 0.14 0.09 0.11 0.15 0.10 0.15 0.18 0.21 0.10 0.10 0.14 0.19 0.25 0.39 0.47 0.50 0.63 0.84 1.00 1.07 1.09 1.18 1.31 1.35 1.23 1.15 1.25 1.28 1.13 1.04 0.99 0.97
0.05 0.09 0.12 0.10 0.08 0.05 0.05 0.07 0.14 0.30 0.26 0.16 0.09 0.07 0.06 0.07 0.10 0.10 0.10 0.31 0.31 0.23 0.24 0.31 0.41 0.48 0.39 0.30 0.35 0.56 0.87 1.04 0.91 0.95 1.13 1.17 1.14 1.01 1.03 1.04 0.99 0.95 0.86 0.82
0.08 0.11 0.13 0.12 0.15 0.18 0.26 0.32 0.36 0.32 0.19 0.11 0.13 0.14 0.11 0.08 0.08 0.13 0.17 0.22 0.41 0.45 0.46 0.53 0.74 0.76 0.75 0.81 0.86 1.04 1.12 1.23 1.12 0.97 0.98 1.01 0.97 0.90 0.82 0.76 0.73 0.76 0.75 0.71
0.13 0.21 0.23 0.25 0.41 0.47 0.37 0.26 0.19 0.16 0.16 0.18 0.17 0.19 0.27 0.22 0.28 0.34 0.39 0.33 0.39 0.56 0.74 0.94 1.13 1.15 1.13 1.11 1.02 1.04 1.03 1.01 0.98 0.94 0.81 0.79 0.77 0.75 0.78 0.76 0.69 0.65 0.64 0.58
0.16 0.28 0.34 0.35 0.31 0.25 0.19 0.20 0.24 0.28 0.31 0.33 0.37 0.47 0.50 0.58 0.60 0.74 0.80 0.78 0.98 1.02 1.29 1.16 1.15 1.13 1.06 1.03 0.86 0.80 0.80 0.76 0.73 0.79 0.72 0.64 0.62 0.61 0.63 0.60 0.53 0.47 0.49 0.57
0.22 0.18 0.16 0.16 0.15 0.20 0.23 0.29 0.29 0.36 0.50 0.52 0.63 0.80 0.94 1.18 1.16 1.19 1.15 1.18 1.24 1.20 1.06 0.85 0.70 0.68 0.75 0.72 0.61 0.57 0.66 0.69 0.63 0.60 0.56 0.49 0.44 0.41 0.40 0.44 0.47 0.53 0.55 0.54
0.48 0.45 0.44 0.44 0.51 0.58 0.66 0.76 0.70 0.89 1.14 1.08 0.92 1.00 1.03 1.20 1.17 1.15 1.00 1.01 1.14 0.80 0.59 0.47 0.38 0.38 0.38 0.44 0.48 0.52 0.58 0.62 0.60 0.58 0.56 0.54 0.50 0.47 0.51 0.52 0.51 0.52 0.56 0.53
0.64 0.63 0.72 0.75 0.69 0.89 1.07 0.99 0.79 0.80 0.80 0.80 0.79 0.80 0.71 0.82 0.71 0.62 0.61 0.66 0.77 0.62 0.51 0.37 0.26 0.22 0.20 0.25 0.31 0.40 0.44 0.50 0.56 0.61 0.68 0.73 0.74 0.66 0.56 0.47 0.45 0.45 0.47 0.48
0.64 0.60 0.60 0.63 0.57 0.64 0.79 0.77 0.68 0.56 0.58 0.62 0.63 0.63 0.53 0.54 0.48 0.37 0.39 0.37 0.26 0.24 0.27 0.31 0.27 0.21 0.23 0.24 0.28 0.35 0.42 0.50 0.56 0.59 0.61 0.62 0.66 0.64 0.58 0.51 0.46 0.44 0.41 0.41
0.62 0.59 0.61 0.61 0.45 0.31 0.42 0.58 0.46 0.45 0.42 0.43 0.40 0.35 0.25 0.22 0.27 0.20 0.18 0.16 0.12 0.11 0.10 0.11 0.15 0.16 0.23 0.30 0.32 0.38 0.43 0.47 0.46 0.50 0.51 0.53 0.56 0.57 0.56 0.49 0.46 0.42 0.38 0.35
0.54 0.53 0.55 0.50 0.39 0.47 0.42 0.40 0.27 0.27 0.19 0.18 0.17 0.14 0.12 0.12 0.21 0.17 0.10 0.08 0.09 0.12 0.14 0.11 0.13 0.16 0.31 0.34 0.34 0.34 0.36 0.39 0.39 0.43 0.44 0.46 0.46 0.49 0.50 0.47 0.44 0.42 0.38 0.33
0.45 0.45 0.47 0.41 0.41 0.36 0.31 0.22 0.20 0.20 0.14 0.15 0.19 0.17 0.15 0.14 0.14 0.14 0.14 0.14 0.13 0.13 0.21 0.23 0.25 0.26 0.31 0.34 0.36 0.34 0.34 0.29 0.30 0.34 0.38 0.38 0.39 0.41 0.43 0.43 0.42 0.42 0.40 0.36
0.39 0.36 0.27 0.21 0.21 0.21 0.22 0.23 0.21 0.21 0.21 0.23 0.27 0.25 0.22 0.22 0.20 0.19 0.22 0.25 0.26 0.28 0.31 0.32 0.30 0.29 0.29 0.31 0.31 0.29 0.31 0.29 0.29 0.28 0.28 0.29 0.32 0.34 0.37 0.39 0.39 0.38 0.36 0.34

GFSNGP_prec_precacc_219.txt.gz
Total_Precipitation_Accumulation
0.61 0.70 0.60 1.09 1.11 1.14 1.02 0.94 1.51 1.28 0.65 0.54 0.48 0.88 0.95 0.67 0.65 0.55 0.73 0.57 0.56 0.62 0.60 0.93 1.31 1.56 1.82 1.68 1.64 1.84 1.97 1.61 1.22 1.21 1.11 1.08 1.15 1.14 1.05 0.94 1.14 1.75 1.83 1.89
1.51 0.90 0.43 0.94 1.09 0.92 0.62 0.72 0.79 0.56 0.60 0.47 0.37 0.52 0.92 0.82 0.77 0.53 0.59 0.89 0.74 0.65 0.62 0.74 0.94 1.27 1.21 1.16 1.22 1.25 1.31 1.27 1.26 1.12 1.16 1.18 1.07 1.07 0.78 0.73 0.75 0.93 1.17 1.31
1.06 0.55 0.49 0.94 0.87 0.51 0.32 0.27 0.36 0.42 0.44 0.31 0.36 0.48 0.66 0.77 0.81 0.80 0.96 1.11 1.17 1.41 1.27 1.09 1.09 1.13 1.21 1.16 1.02 1.35 1.22 1.08 0.89 1.04 1.14 1.22 1.22 1.29 1.36 1.29 1.12 1.01 0.99 0.99
1.07 0.67 1.36 1.01 0.40 0.32 0.33 0.33 0.28 0.31 0.31 0.36 0.54 0.67 0.72 0.91 1.56 1.68 1.47 1.40 1.33 1.22 1.06 1.04 1.00 0.89 1.13 1.36 1.31 1.21 1.14 1.28 1.04 0.96 1.12 1.31 1.35 1.33 1.57 1.60 1.43 1.38 1.35 1.13
1.13 0.78 0.61 0.27 0.16 0.25 0.34 0.33 0.36 0.56 0.73 0.71 0.68 0.93 1.25 1.45 1.94 1.83 1.25 0.87 0.86 1.00 1.04 0.80 1.01 0.92 1.03 0.92 1.22 1.56 1.57 1.56 1.55 1.19 1.17 1.35 1.57 1.56 1.40 1.40 1.52 1.53 1.48 1.49
1.28 1.27 0.68 0.22 0.15 0.08 0.15 0.47 0.43 0.78 1.24 1.15 1.21 1.37 1.20 1.05 1.60 1.38 0.85 0.49 0.37 0.35 0.47 0.79 0.84 0.74 0.81 0.76 0.73 1.17 1.83 1.72 1.84 1.90 1.84 1.95 1.86 1.74 1.85 1.83 1.76 1.72 1.66 1.54
1.47 1.82 0.68 0.16 0.19 0.24 0.81 1.05 0.72 0.69 0.86 1.26 1.53 1.69 1.42 1.19 1.24 0.98 0.78 0.31 0.11 0.06 0.03 0.08 0.32 0.52 0.47 0.48 0.67 0.73 1.07 1.69 1.73 1.92 1.80 1.69 1.83 1.92 2.05 2.32 2.48 2.40 2.26 1.98
1.27 1.67 1.01 0.36 0.54 0.97 1.05 0.79 0.56 0.45 0.29 0.38 0.60 0.66 0.68 0.89 0.88 0.61 0.36 0.09 0.01 0.00 0.01 0.02 0.04 0.07 0.20 0.31 0.36 0.44 0.54 0.72 1.16 1.27 1.19 1.31 1.33 1.41 1.51 1.50 1.65 1.81 1.91 2.05
0.89 0.76 0.69 0.62 0.89 0.76 0.74 0.80 0.46 0.31 0.25 0.41 0.41 0.47 0.65 0.53 0.25 0.10 0.05 0.03 0.01 0.01 0.02 0.04 0.04 0.03 0.04 0.08 0.10 0.13 0.20 0.29 0.56 0.95 1.04 0.90 1.10 1.18 1.05 1.02 0.98 1.07 1.10 1.16
1.19 0.96 1.02 1.07 0.62 0.41 0.54 0.55 0.38 0.26 0.27 0.30 0.32 0.29 0.26 0.18 0.14 0.11 0.08 0.03 0.03 0.02 0.02 0.03 0.06 0.20 0.13 0.06 0.04 0.05 0.08 0.11 0.16 0.43 0.89 0.77 0.76 0.80 0.82 0.85 0.87 0.95 1.00 1.03
1.96 1.44 1.13 0.98 0.96 0.77 0.48 0.21 0.23 0.38 0.35 0.26 0.14 0.12 0.13 0.14 0.27 0.30 0.24 0.12 0.02 0.02 0.03 0.03 0.07 0.13 0.42 0.29 0.08 0.07 0.10 0.15 0.18 0.15 0.31 0.63 0.69 0.78 0.73 0.90 0.98 1.04 1.24 1.29
2.05 1.39 1.36 1.06 0.53 0.41 0.39 0.36 0.24 0.12 0.11 0.07 0.04 0.03 0.07 0.13 0.27 0.28 0.26 0.16 0.06 0.02 0.02 0.03 0.03 0.06 0.09 0.40 0.28 0.16 0.19 0.20 0.37 0.34 0.34 0.48 0.69 0.96 1.12 0.87 0.74 0.74 0.84 0.97
0.99 1.16 1.08 0.83 0.49 0.32 0.28 0.14 0.05 0.08 0.16 0.30 0.32 0.11 0.10 0.14 0.23 0.29 0.11 0.08 0.05 0.10 0.07 0.06 0.07 0.13 0.16 0.25 0.48 0.41 0.34 0.37 0.38 0.49 0.47 0.52 0.67 0.78 1.12 1.35 1.24 1.24 1.28 1.32
0.58 0.82 0.61 0.30 0.23 0.12 0.04 0.02 0.03 0.02 0.03 0.08 0.23 0.30 0.20 0.15 0.19 0.23 0.18 0.06 0.05 0.05 0.08 0.10 0.17 0.34 0.43 0.55 0.72 1.01 1.07 1.18 1.15 1.25 1.27 1.19 1.14 1.21 1.38 1.41 1.51 1.76 1.67 1.37
0.38 0.35 0.33 0.18 0.06 0.03 0.02 0.04 0.05 0.07 0.13 0.18 0.14 0.09 0.11 0.15 0.10 0.15 0.18 0.21 0.10 0.10 0.14 0.19 0.25 0.39 0.47 0.50 0.63 0.84 1.01 1.07 1.09 1.19 1.31 1.35 1.23 1.15 1.25 1.29 1.15 1.06 1.02 1.01
0.05 0.09 0.12 0.10 0.08 0.05 0.05 0.07 0.14 0.30 0.26 0.16 0.09 0.07 0.06 0.07 0.10 0.10 0.10 0.31 0.31 0.23 0.24 0.31 0.41 0.48 0.39 0.30 0.35 0.56 0.87 1.04 0.92 0.95 1.13 1.17 1.14 1.02 1.03 1.05 1.01 0.98 0.88 0.87
0.08 0.11 0.14 0.12 0.16 0.18 0.26 0.32 0.36 0.32 0.19 0.11 0.13 0.14 0.11 0.08 0.08 0.13 0.17 0.22 0.41 0.45 0.46 0.53 0.74 0.76 0.75 0.81 0.86 1.04 1.12 1.23 1.13 0.97 0.99 1.01 0.97 0.91 0.82 0.77 0.74 0.78 0.77 0.75
0.13 0.22 0.23 0.25 0.41 0.47 0.37 0.26 0.19 0.16 0.16 0.19 0.20 0.22 0.28 0.23 0.28 0.34 0.39 0.33 0.39 0.56 0.74 0.94 1.13 1.15 1.13 1.11 1.02 1.04 1.03 1.01 0.98 0.94 0.81 0.79 0.77 0.75 0.78 0.77 0.71 0.67 0.66 0.62
0.16 0.28 0.34 0.35 0.31 0.27 0.21 0.23 0.27 0.32 0.37 0.39 0.41 0.49 0.50 0.58 0.60 0.74 0.80 0.78 0.98 1.02 1.29 1.16 1.15 1.13 1.06 1.03 0.86 0.80 0.80 0.76 0.73 0.79 0.72 0.64 0.62 0.62 0.64 0.61 0.54 0.50 0.51 0.61
0.23 0.18 0.16 0.16 0.16 0.24 0.27 0.32 0.32 0.38 0.51 0.53 0.64 0.80 0.94 1.18 1.17 1.20 1.16 1.19 1.29 1.21 1.06 0.85 0.70 0.68 0.75 0.72 0.61 0.57 0.66 0.69 0.64 0.60 0.57 0.49 0.44 0.41 0.41 0.45 0.48 0.54 0.57 0.56
0.49 0.45 0.44 0.44 0.51 0.58 0.66 0.76 0.70 0.89 1.14 1.08 0.92 1.00 1.03 1.21 1.18 1.16 1.02 1.03 1.17 0.81 0.59 0.47 0.38 0.38 0.38 0.44 0.48 0.52 0.58 0.62 0.60 0.58 0.57 0.54 0.50 0.48 0.51 0.52 0.52 0.52 0.57 0.55
0.67 0.64 0.73 0.75 0.69 0.89 1.07 0.99 0.79 0.80 0.80 0.80 0.80 0.80 0.72 0.82 0.72 0.63 0.63 0.68 0.77 0.62 0.51 0.37 0.26 0.22 0.20 0.25 0.31 0.40 0.44 0.50 0.56 0.61 0.68 0.73 0.74 0.67 0.57 0.48 0.46 0.46 0.48 0.49
0.66 0.62 0.62 0.63 0.57 0.64 0.79 0.78 0.69 0.57 0.59 0.63 0.65 0.65 0.55 0.55 0.49 0.37 0.39 0.37 0.26 0.24 0.27 0.31 0.27 0.21 0.23 0.24 0.28 0.35 0.42 0.50 0.56 0.59 0.61 0.62 0.67 0.65 0.60 0.53 0.49 0.46 0.43 0.42
0.62 0.59 0.61 0.61 0.45 0.31 0.42 0.59 0.47 0.46 0.43 0.45 0.42 0.36 0.26 0.22 0.27 0.20 0.18 0.16 0.12 0.11 0.10 0.11 0.15 0.16 0.23 0.30 0.32 0.38 0.43 0.47 0.46 0.50 0.51 0.53 0.57 0.57 0.57 0.51 0.50 0.47 0.42 0.39
0.54 0.53 0.55 0.50 0.39 0.47 0.42 0.40 0.27 0.27 0.19 0.18 0.17 0.14 0.12 0.12 0.21 0.17 0.10 0.08 0.09 0.12 0.14 0.11 0.13 0.16 0.31 0.34 0.34 0.34 0.36 0.39 0.39 0.43 0.44 0.46 0.46 0.49 0.51 0.49 0.48 0.48 0.44 0.38
0.45 0.45 0.47 0.41 0.41 0.36 0.31 0.22 0.20 0.20 0.14 0.15 0.19 0.17 0.15 0.14 0.14 0.14 0.14 0.14 0.13 0.13 0.21 0.23 0.25 0.26 0.31 0.34 0.36 0.34 0.34 0.29 0.30 0.34 0.38 0.38 0.39 0.41 0.43 0.44 0.45 0.47 0.47 0.42
0.39 0.36 0.27 0.21 0.21 0.21 0.23 0.23 0.21 0.21 0.21 0.23 0.27 0.25 0.22 0.22 0.20 0.19 0.22 0.25 0.26 0.28 0.31 0.32 0.30 0.29 0.29 0.31 0.31 0.29 0.31 0.29 0.29 0.28 0.28 0.29 0.32 0.34 0.37 0.40 0.41 0.42 0.42 0.41

GFSNGP_prec_precacc_222.txt.gz
Total_Precipitation_Accumulation
0.61 0.70 0.61 1.09 1.12 1.15 1.04 0.95 1.54 1.29 0.65 0.55 0.48 0.88 0.95 0.67 0.65 0.55 0.73 0.57 0.56 0.62 0.60 0.93 1.31 1.56 1.89 1.76 1.67 1.88 2.04 1.68 1.25 1.21 1.11 1.08 1.15 1.14 1.05 0.94 1.14 1.75 1.84 1.89
1.51 0.90 0.43 0.94 1.09 0.92 0.62 0.72 0.80 0.57 0.60 0.47 0.37 0.52 0.92 0.82 0.77 0.53 0.59 0.89 0.74 0.65 0.62 0.74 0.94 1.32 1.46 1.31 1.31 1.27 1.34 1.34 1.32 1.12 1.16 1.18 1.07 1.07 0.78 0.73 0.75 0.93 1.17 1.31
1.07 0.55 0.49 0.94 0.87 0.51 0.32 0.27 0.36 0.42 0.44 0.31 0.36 0.48 0.66 0.77 0.81 0.80 0.96 1.11 1.17 1.41 1.27 1.09 1.10 1.22 1.49 1.50 1.26 1.51 1.30 1.11 0.89 1.04 1.14 1.22 1.22 1.29 1.36 1.30 1.12 1.02 0.99 0.99
1.09 0.67 1.36 1.01 0.40 0.32 0.33 0.33 0.28 0.31 0.31 0.36 0.54 0.67 0.72 0.91 1.56 1.68 1.47 1.41 1.33 1.23 1.06 1.05 1.02 0.98 1.39 1.87 1.80 1.52 1.21 1.28 1.04 0.96 1.12 1.31 1.35 1.33 1.57 1.60 1.43 1.38 1.35 1.13
1.15 0.79 0.61 0.27 0.16 0.25 0.34 0.33 0.36 0.56 0.73 0.71 0.68 0.93 1.25 1.45 1.94 1.83 1.25 0.88 0.87 1.00 1.05 0.81 1.02 0.98 1.23 1.25 1.44 1.63 1.58 1.56 1.55 1.19 1.17 1.35 1.57 1.56 1.40 1.40 1.52 1.53 1.49 1.49
1.29 1.27 0.68 0.22 0.15 0.08 0.15 0.47 0.43 0.78 1.24 1.15 1.21 1.37 1.20 1.05 1.60 1.39 0.85 0.50 0.37 0.36 0.47 0.79 0.84 0.75 0.84 0.81 0.76 1.17 1.83 1.72 1.84 1.90 1.84 1.95 1.86 1.74 1.85 1.83 1.77 1.72 1.66 1.54
1.47 1.82 0.68 0.16 0.19 0.24 0.81 1.05 0.72 0.69 0.86 1.26 1.53 1.69 1.42 1.19 1.24 0.98 0.78 0.32 0.11 0.06 0.04 0.08 0.32 0.53 0.47 0.48 0.67 0.73 1.07 1.69 1.73 1.92 1.80 1.69 1.83 1.92 2.05 2.33 2.48 2.40 2.26 1.98
1.27 1.67 1.01 0.36 0.54 0.97 1.05 0.79 0.56 0.45 0.29 0.38 0.60 0.66 0.68 0.89 0.88 0.61 0.37 0.09 0.01 0.00 0.01 0.02 0.04 0.07 0.20 0.31 0.36 0.44 0.54 0.72 1.16 1.27 1.19 1.31 1.33 1.41 1.51 1.50 1.65 1.81 1.91 2.05
0.89 0.76 0.69 0.62 0.89 0.76 0.74 0.80 0.46 0.31 0.25 0.41 0.41 0.47 0.65 0.53 0.25 0.10 0.05 0.03 0.01 0.01 0.02 0.04 0.04 0.03 0.04 0.08 0.10 0.13 0.20 0.29 0.56 0.95 1.04 0.90 1.10 1.18 1.05 1.03 0.98 1.07 1.10 1.16
1.19 0.96 1.02 1.07 0.62 0.41 0.54 0.55 0.38 0.26 0.27 0.30 0.32 0.29 0.26 0.18 0.14 0.11 0.08 0.03 0.03 0.02 0.02 0.03 0.06 0.20 0.13 0.06 0.04 0.05 0.08 0.11 0.16 0.43 0.89 0.77 0.76 0.80 0.83 0.85 0.88 0.95 1.00 1.04
1.96 1.44 1.13 0.98 0.96 0.77 0.48 0.21 0.23 0.38 0.35 0.26 0.14 0.12 0.14 0.14 0.27 0.30 0.24 0.12 0.02 0.02 0.03 0.03 0.07 0.13 0.42 0.29 0.08 0.07 0.10 0.15 0.18 0.15 0.31 0.63 0.69 0.78 0.74 0.91 1.00 1.05 1.24 1.29
2.05 1.39 1.36 1.06 0.53 0.41 0.39 0.36 0.24 0.12 0.11 0.07 0.04 0.03 0.07 0.13 0.27 0.28 0.26 0.16 0.06 0.02 0.02 0.03 0.03 0.06 0.09 0.40 0.28 0.16 0.20 0.20 0.37 0.34 0.34 0.48 0.69 0.96 1.13 0.88 0.74 0.74 0.84 0.98
0.99 1.16 1.08 0.83 0.49 0.32 0.28 0.14 0.05 0.08 0.16 0.30 0.32 0.11 0.10 0.14 0.23 0.29 0.11 0.08 0.05 0.10 0.07 0.06 0.08 0.13 0.16 0.25 0.48 0.41 0.34 0.37 0.38 0.49 0.47 0.52 0.68 0.78 1.13 1.36 1.25 1.25 1.28 1.32
0.58 0.82 0.61 0.30 0.23 0.12 0.04 0.02 0.03 0.02 0.03 0.08 0.23 0.30 0.20 0.15 0.19 0.23 0.18 0.06 0.05 0.05 0.08 0.10 0.17 0.34 0.43 0.55 0.72 1.01 1.07 1.18 1.16 1.26 1.28 1.19 1.14 1.21 1.38 1.41 1.52 1.76 1.68 1.38
0.38 0.35 0.33 0.18 0.06 0.03 0.02 0.04 0.05 0.08 0.13 0.18 0.14 0.09 0.11 0.15 0.10 0.15 0.18 0.21 0.10 0.10 0.14 0.19 0.25 0.39 0.47 0.50 0.63 0.84 1.01 1.07 1.09 1.19 1.31 1.36 1.23 1.15 1.25 1.30 1.16 1.07 1.03 1.02
0.05 0.09 0.12 0.10 0.08 0.05 0.05 0.08 0.15 0.30 0.27 0.16 0.09 0.07 0.06 0.07 0.10 0.10 0.11 0.31 0.31 0.23 0.24 0.31 0.41 0.48 0.39 0.30 0.35 0.56 0.87 1.04 0.92 0.96 1.13 1.18 1.15 1.02 1.03 1.05 1.02 0.99 0.89 0.88
0.08 0.11 0.14 0.12 0.16 0.18 0.26 0.32 0.36 0.32 0.20 0.12 0.13 0.15 0.13 0.11 0.12 0.16 0.19 0.23 0.41 0.45 0.46 0.53 0.74 0.76 0.75 0.81 0.86 1.04 1.12 1.23 1.13 0.97 0.99 1.01 0.97 0.91 0.83 0.77 0.75 0.79 0.79 0.77
0.13 0.22 0.23 0.25 0.41 0.47 0.37 0.26 0.20 0.16 0.18 0.21 0.22 0.25 0.33 0.29 0.33 0.37 0.40 0.34 0.40 0.56 0.74 0.94 1.13 1.15 1.13 1.11 1.02 1.04 1.03 1.01 0.99 0.94 0.81 0.79 0.78 0.76 0.79 0.78 0.71 0.68 0.68 0.64
0.16 0.29 0.35 0.37 0.33 0.27 0.22 0.24 0.29 0.34 0.39 0.42 0.44 0.52 0.54 0.61 0.61 0.75 0.80 0.79 0.99 1.04 1.32 1.17 1.15 1.13 1.06 1.03 0.86 0.80 0.80 0.76 0.73 0.79 0.72 0.64 0.63 0.62 0.64 0.62 0.55 0.51 0.53 0.62
0.25 0.22 0.21 0.20 0.19 0.25 0.27 0.33 0.32 0.38 0.52 0.54 0.64 0.80 0.94 1.18 1.17 1.20 1.16 1.20 1.32 1.23 1.07 0.86 0.70 0.68 0.75 0.72 0.61 0.57 0.66 0.69 0.64 0.60 0.57 0.49 0.45 0.41 0.41 0.45 0.49 0.55 0.58 0.58
0.54 0.52 0.49 0.47 0.53 0.59 0.66 0.76 0.71 0.89 1.14 1.08 0.93 1.01 1.04 1.21 1.19 1.17 1.02 1.05 1.20 0.83 0.60 0.48 0.38 0.38 0.38 0.44 0.48 0.52 0.58 0.62 0.60 0.58 0.57 0.54 0.51 0.48 0.51 0.53 0.53 0.53 0.58 0.56
0.69 0.66 0.74 0.75 0.69 0.89 1.08 0.99 0.80 0.81 0.81 0.81 0.81 0.82 0.74 0.84 0.73 0.63 0.63 0.68 0.77 0.62 0.51 0.37 0.26 0.22 0.20 0.25 0.31 0.40 0.44 0.50 0.56 0.61 0.68 0.73 0.74 0.67 0.57 0.48 0.47 0.47 0.49 0.50
0.67 0.62 0.62 0.63 0.57 0.64 0.79 0.78 0.69 0.58 0.60 0.64 0.66 0.66 0.56 0.56 0.49 0.38 0.39 0.37 0.26 0.24 0.27 0.31 0.27 0.21 0.23 0.24 0.28 0.35 0.42 0.50 0.56 0.59 0.61 0.62 0.67 0.65 0.61 0.54 0.50 0.48 0.45 0.43
0.62 0.59 0.61 0.61 0.45 0.31 0.42 0.60 0.47 0.47 0.44 0.46 0.43 0.37 0.26 0.22 0.27 0.20 0.18 0.16 0.12 0.11 0.10 0.11 0.15 0.16 0.23 0.30 0.32 0.38 0.43 0.47 0.46 0.50 0.51 0.53 0.57 0.57 0.57 0.52 0.51 0.47 0.44 0.41
0.54 0.53 0.55 0.50 0.40 0.47 0.43 0.40 0.28 0.27 0.19 0.18 0.17 0.14 0.12 0.12 0.21 0.17 0.10 0.08 0.09 0.12 0.14 0.11 0.13 0.16 0.31 0.34 0.34 0.34 0.36 0.39 0.39 0.43 0.44 0.46 0.46 0.50 0.51 0.49 0.48 0.49 0.46 0.41
0.45 0.45 0.47 0.42 0.41 0.36 0.31 0.22 0.21 0.20 0.14 0.15 0.19 0.17 0.15 0.14 0.14 0.14 0.14 0.14 0.13 0.14 0.21 0.24 0.25 0.26 0.31 0.34 0.36 0.35 0.34 0.30 0.30 0.34 0.38 0.38 0.40 0.41 0.43 0.44 0.45 0.47 0.48 0.45
0.39 0.36 0.27 0.21 0.21 0.21 0.23 0.23 0.21 0.21 0.21 0.23 0.27 0.25 0.22 0.22 0.21 0.19 0.22 0.25 0.27 0.28 0.31 0.33 0.31 0.29 0.29 0.31 0.31 0.29 0.31 0.30 0.29 0.29 0.28 0.30 0.32 0.34 0.37 0.40 0.41 0.42 0.43 0.43

GFSNGP_prec_precacc_225.txt.gz
Total_Precipitation_Accumulation
0.61 0.70 0.61 1.10 1.13 1.16 1.05 0.96 1.57 1.30 0.65 0.55 0.48 0.88 0.95 0.67 0.65 0.55 0.73 0.57 0.56 0.62 0.60 0.93 1.31 1.56 1.89 1.77 1.67 1.91 2.12 1.78 1.44 1.35 1.12 1.08 1.15 1.14 1.05 0.94 1.14 1.75 1.84 1.89
1.51 0.90 0.43 0.94 1.09 0.92 0.63 0.73 0.80 0.57 0.61 0.47 0.37 0.52 0.92 0.82 0.77 0.53 0.59 0.89 0.74 0.65 0.62 0.74 0.94 1.33 1.46 1.35 1.46 1.44 1.44 1.46 1.47 1.14 1.16 1.18 1.07 1.07 0.78 0.73 0.75 0.93 1.17 1.31
1.09 0.55 0.49 0.94 0.87 0.51 0.32 0.27 0.36 0.42 0.44 0.31 0.36 0.48 0.66 0.77 0.81 0.80 0.96 1.11 1.17 1.42 1.28 1.09 1.10 1.22 1.51 1.63 1.49 1.76 1.56 1.29 0.95 1.05 1.14 1.22 1.22 1.29 1.36 1.30 1.12 1.02 0.99 0.99
1.12 0.68 1.38 1.01 0.40 0.32 0.33 0.33 0.28 0.31 0.31 0.36 0.54 0.67 0.72 0.91 1.56 1.68 1.47 1.41 1.34 1.23 1.07 1.05 1.02 0.98 1.40 1.95 1.98 1.77 1.51 1.45 1.08 0.96 1.13 1.31 1.35 1.33 1.57 1.60 1.43 1.38 1.35 1.13
1.19 0.80 0.61 0.27 0.16 0.25 0.34 0.33 0.36 0.56 0.73 0.71 0.68 0.93 1.25 1.45 1.94 1.83 1.25 0.88 0.87 1.01 1.05 0.81 1.02 0.99 1.24 1.26 1.46 1.66 1.60 1.56 1.55 1.19 1.17 1.35 1.57 1.56 1.40 1.41 1.52 1.53 1.49 1.49
1.35 1.29 0.68 0.22 0.15 0.08 0.15 0.47 0.43 0.78 1.24 1.15 1.21 1.37 1.20 1.05 1.60 1.39 0.85 0.50 0.38 0.36 0.47 0.79 0.84 0.75 0.84 0.81 0.76 1.17 1.83 1.72 1.84 1.90 1.84 1.95 1.86 1.74 1.85 1.83 1.77 1.72 1.66 1.54
1.51 1.86 0.68 0.16 0.19 0.24 0.81 1.05 0.72 0.69 0.86 1.26 1.53 1.69 1.42 1.19 1.24 0.98 0.78 0.32 0.11 0.06 0.04 0.08 0.32 0.53 0.47 0.48 0.67 0.73 1.07 1.69 1.73 1.92 1.80 1.69 1.83 1.92 2.05 2.33 2.48 2.41 2.26 1.98
1.28 1.70 1.01 0.36 0.54 0.97 1.05 0.79 0.56 0.45 0.29 0.38 0.60 0.66 0.68 0.89 0.88 0.61 0.37 0.09 0.01 0.00 0.01 0.02 0.04 0.07 0.20 0.31 0.36 0.44 0.54 0.72 1.16 1.27 1.19 1.31 1.33 1.41 1.51 1.50 1.65 1.81 1.91 2.05
0.89 0.76 0.69 0.62 0.89 0.76 0.74 0.80 0.46 0.31 0.25 0.41 0.41 0.47 0.65 0.53 0.25 0.10 0.05 0.03 0.01 0.01 0.02 0.04 0.04 0.03 0.04 0.08 0.10 0.13 0.20 0.29 0.56 0.95 1.04 0.90 1.10 1.18 1.05 1.03 0.98 1.07 1.11 1.16
1.19 0.96 1.02 1.07 0.62 0.41 0.54 0.55 0.38 0.26 0.27 0.30 0.32 0.29 0.26 0.18 0.14 0.11 0.08 0.03 0.03 0.02 0.02 0.03 0.06 0.20 0.13 0.06 0.04 0.05 0.08 0.11 0.16 0.43 0.89 0.77 0.76 0.80 0.83 0.86 0.88 0.95 1.00 1.04
1.96 1.44 1.13 0.98 0.96 0.77 0.48 0.21 0.23 0.38 0.35 0.26 0.14 0.12 0.14 0.14 0.27 0.30 0.24 0.12 0.02 0.02 0.03 0.03 0.07 0.13 0.42 0.29 0.08 0.07 0.10 0.15 0.18 0.15 0.31 0.63 0.69 0.79 0.74 0.91 1.00 1.05 1.25 1.30
2.05 1.39 1.36 1.06 0.53 0.41 0.39 0.36 0.24 0.12 0.11 0.07 0.04 0.03 0.07 0.13 0.27 0.28 0.26 0.16 0.06 0.02 0.02 0.03 0.03 0.06 0.09 0.40 0.28 0.16 0.20 0.20 0.37 0.34 0.34 0.48 0.69 0.96 1.13 0.88 0.74 0.74 0.84 0.98
0.99 1.16 1.08 0.83 0.49 0.32 0.28 0.14 0.05 0.08 0.16 0.30 0.32 0.11 0.10 0.14 0.23 0.29 0.11 0.08 0.05 0.10 0.07 0.06 0.08 0.13 0.16 0.25 0.48 0.41 0.34 0.37 0.38 0.49 0.47 0.52 0.68 0.78 1.13 1.36 1.25 1.25 1.28 1.32
0.58 0.82 0.61 0.30 0.23 0.12 0.04 0.02 0.03 0.03 0.03 0.09 0.24 0.30 0.20 0.15 0.19 0.23 0.18 0.06 0.05 0.05 0.08 0.10 0.17 0.34 0.43 0.55 0.72 1.01 1.07 1.18 1.16 1.26 1.28 1.19 1.15 1.22 1.39 1.41 1.52 1.77 1.68 1.38
0.38 0.35 0.33 0.18 0.06 0.03 0.02 0.04 0.06 0.09 0.15 0.19 0.15 0.10 0.12 0.16 0.11 0.16 0.19 0.22 0.11 0.10 0.15 0.19 0.25 0.39 0.47 0.50 0.63 0.84 1.01 1.07 1.09 1.19 1.31 1.36 1.24 1.15 1.26 1.30 1.17 1.07 1.04 1.02
0.05 0.09 0.12 0.10 0.08 0.06 0.06 0.09 0.16 0.31 0.28 0.17 0.10 0.09 0.08 0.09 0.12 0.12 0.15 0.36 0.36 0.27 0.27 0.33 0.41 0.48 0.39 0.30 0.35 0.56 0.87 1.04 0.92 0.96 1.13 1.18 1.15 1.02 1.04 1.05 1.03 0.99 0.90 0.89
0.08 0.11 0.14 0.13 0.16 0.18 0.26 0.33 0.37 0.33 0.21 0.14 0.16 0.18 0.17 0.16 0.18 0.23 0.28 0.32 0.47 0.48 0.47 0.54 0.74 0.76 0.75 0.81 0.86 1.04 1.12 1.23 1.13 0.97 0.99 1.01 0.97 0.91 0.83 0.78 0.75 0.79 0.79 0.77
0.13 0.22 0.24 0.27 0.43 0.51 0.41 0.29 0.23 0.18 0.19 0.22 0.23 0.26 0.35 0.32 0.38 0.42 0.47 0.40 0.44 0.59 0.75 0.96 1.15 1.15 1.13 1.11 1.02 1.04 1.03 1.01 0.99 0.94 0.81 0.79 0.78 0.76 0.79 0.78 0.72 0.69 0.68 0.65
0.16 0.30 0.38 0.43 0.42 0.35 0.27 0.28 0.32 0.35 0.40 0.43 0.45 0.52 0.54 0.62 0.62 0.76 0.81 0.80 1.00 1.06 1.37 1.22 1.16 1.13 1.07 1.03 0.86 0.80 0.80 0.76 0.73 0.79 0.72 0.64 0.63 0.62 0.64 0.62 0.55 0.51 0.53 0.63
0.26 0.25 0.26 0.23 0.21 0.28 0.30 0.35 0.33 0.38 0.52 0.54 0.65 0.81 0.95 1.19 1.18 1.20 1.16 1.20 1.33 1.24 1.08 0.88 0.71 0.69 0.75 0.73 0.61 0.57 0.66 0.69 0.64 0.60 0.57 0.49 0.45 0.41 0.41 0.46 0.49 0.56 0.59 0.59
0.55 0.52 0.49 0.47 0.53 0.59 0.66 0.77 0.71 0.90 1.14 1.09 0.94 1.02 1.05 1.23 1.21 1.18 1.03 1.06 1.26 0.87 0.60 0.48 0.38 0.38 0.38 0.44 0.48 0.52 0.58 0.62 0.60 0.58 0.57 0.55 0.51 0.48 0.52 0.53 0.53 0.54 0.58 0.57
0.69 0.66 0.74 0.75 0.69 0.89 1.08 0.99 0.80 0.81 0.82 0.82 0.82 0.83 0.75 0.85 0.74 0.64 0.64 0.70 0.78 0.63 0.52 0.37 0.26 0.22 0.20 0.25 0.31 0.40 0.44 0.50 0.57 0.61 0.68 0.74 0.74 0.68 0.58 0.49 0.47 0.47 0.49 0.51
0.67 0.62 0.62 0.63 0.57 0.64 0.79 0.79 0.69 0.59 0.61 0.65 0.67 0.67 0.56 0.56 0.49 0.38 0.39 0.37 0.26 0.24 0.27 0.31 0.27 0.21 0.23 0.24 0.28 0.35 0.42 0.50 0.56 0.60 0.62 0.63 0.67 0.65 0.61 0.54 0.50 0.48 0.46 0.44
0.62 0.59 0.61 0.61 0.45 0.31 0.42 0.60 0.47 0.47 0.44 0.46 0.43 0.37 0.26 0.23 0.27 0.20 0.18 0.16 0.12 0.11 0.10 0.12 0.15 0.16 0.24 0.30 0.32 0.39 0.44 0.48 0.47 0.51 0.52 0.54 0.57 0.58 0.58 0.53 0.52 0.48 0.45 0.42
0.54 0.53 0.55 0.50 0.40 0.47 0.43 0.40 0.28 0.27 0.19 0.18 0.17 0.14 0.12 0.12 0.22 0.17 0.10 0.09 0.09 0.13 0.15 0.12 0.13 0.17 0.32 0.36 0.36 0.36 0.38 0.39 0.40 0.44 0.45 0.46 0.47 0.50 0.51 0.50 0.49 0.49 0.46 0.41
0.45 0.45 0.47 0.42 0.41 0.36 0.31 0.22 0.21 0.20 0.14 0.15 0.19 0.18 0.16 0.15 0.15 0.14 0.14 0.15 0.14 0.14 0.22 0.25 0.26 0.28 0.33 0.36 0.38 0.36 0.35 0.31 0.31 0.35 0.38 0.39 0.40 0.42 0.43 0.44 0.45 0.47 0.48 0.46
0.39 0.36 0.27 0.21 0.21 0.21 0.23 0.23 0.21 0.21 0.21 0.23 0.28 0.25 0.23 0.23 0.21 0.20 0.23 0.26 0.28 0.29 0.33 0.34 0.32 0.31 0.31 0.33 0.32 0.31 0.32 0.31 0.31 0.30 0.29 0.30 0.33 0.35 0.37 0.40 0.41 0.42 0.43 0.43

GFSNGP_prec_precacc_228.txt.gz
Total_Precipitation_Accumulation
0.61 0.70 0.61 1.10 1.13 1.17 1.06 0.97 1.59 1.31 0.65 0.55 0.48 0.88 0.95 0.67 0.65 0.55 0.73 0.57 0.56 0.62 0.60 0.93 1.31 1.56 1.89 1.77 1.67 1.91 2.14 1.81 1.52 1.54 1.20 1.09 1.15 1.14 1.05 0.94 1.14 1.75 1.84 1.89
1.52 0.90 0.43 0.94 1.10 0.92 0.63 0.73 0.80 0.57 0.61 0.47 0.37 0.52 0.92 0.82 0.77 0.53 0.59 0.89 0.74 0.65 0.62 0.74 0.94 1.33 1.46 1.35 1.46 1.45 1.45 1.48 1.54 1.17 1.17 1.19 1.07 1.07 0.78 0.73 0.75 0.93 1.17 1.31
1.12 0.56 0.49 0.94 0.87 0.51 0.32 0.27 0.36 0.42 0.44 0.31 0.36 0.48 0.66 0.77 0.81 0.80 0.96 1.11 1.17 1.42 1.28 1.10 1.11 1.22 1.51 1.63 1.49 1.76 1.58 1.33 0.99 1.06 1.14 1.22 1.22 1.29 1.36 1.30 1.12 1.02 0.99 0.99
1.20 0.73 1.42 1.01 0.40 0.32 0.33 0.33 0.28 0.31 0.31 0.36 0.54 0.67 0.72 0.91 1.56 1.68 1.47 1.41 1.34 1.23 1.07 1.05 1.02 0.98 1.40 1.95 1.99 1.77 1.51 1.46 1.09 0.96 1.13 1.32 1.35 1.33 1.58 1.61 1.43 1.38 1.36 1.13
1.32 0.86 0.62 0.27 0.16 0.25 0.34 0.33 0.36 0.56 0.73 0.71 0.68 0.93 1.25 1.45 1.94 1.83 1.25 0.88 0.87 1.01 1.05 0.81 1.02 0.99 1.24 1.26 1.46 1.66 1.60 1.56 1.55 1.19 1.17 1.35 1.57 1.56 1.40 1.41 1.52 1.53 1.49 1.49
1.48 1.37 0.69 0.22 0.15 0.08 0.15 0.47 0.43 0.78 1.24 1.15 1.21 1.37 1.20 1.05 1.60 1.39 0.85 0.50 0.38 0.36 0.47 0.79 0.84 0.75 0.84 0.81 0.76 1.17 1.83 1.72 1.84 1.90 1.84 1.95 1.86 1.74 1.85 1.83 1.77 1.72 1.66 1.55
1.60 1.98 0.70 0.16 0.19 0.24 0.81 1.05 0.72 0.69 0.86 1.26 1.53 1.69 1.42 1.19 1.24 0.98 0.78 0.32 0.11 0.06 0.04 0.08 0.32 0.53 0.47 0.48 0.67 0.73 1.07 1.69 1.73 1.92 1.80 1.69 1.83 1.92 2.05 2.33 2.48 2.41 2.27 1.99
1.32 1.79 1.04 0.36 0.54 0.97 1.05 0.79 0.56 0.45 0.29 0.38 0.60 0.66 0.68 0.89 0.88 0.61 0.37 0.09 0.01 0.00 0.01 0.02 0.04 0.07 0.20 0.31 0.36 0.44 0.54 0.72 1.16 1.27 1.19 1.31 1.33 1.41 1.52 1.51 1.65 1.82 1.91 2.06
0.90 0.77 0.69 0.62 0.89 0.76 0.74 0.80 0.46 0.31 0.25 0.41 0.41 0.47 0.65 0.53 0.25 0.10 0.05 0.03 0.01 0.01 0.02 0.04 0.04 0.03 0.04 0.08 0.10 0.13 0.20 0.29 0.56 0.95 1.04 0.90 1.10 1.18 1.05 1.03 0.98 1.08 1.11 1.16
1.19 0.96 1.02 1.07 0.62 0.41 0.54 0.55 0.38 0.26 0.27 0.30 0.32 0.29 0.26 0.18 0.14 0.11 0.08 0.03 0.03 0.02 0.02 0.03 0.06 0.20 0.13 0.06 0.04 0.05 0.08 0.11 0.16 0.43 0.89 0.77 0.76 0.80 0.83 0.86 0.89 0.95 1.00 1.04
1.96 1.44 1.13 0.98 0.96 0.77 0.48 0.21 0.23 0.38 0.35 0.26 0.14 0.12 0.14 0.14 0.27 0.30 0.24 0.12 0.02 0.02 0.03 0.03 0.07 0.13 0.42 0.29 0.08 0.07 0.10 0.15 0.18 0.15 0.31 0.63 0.69 0.79 0.74 0.91 1.01 1.05 1.25 1.30
2.05 1.39 1.36 1.06 0.53 0.41 0.39 0.36 0.24 0.12 0.11 0.07 0.04 0.03 0.07 0.13 0.28 0.28 0.26 0.16 0.06 0.02 0.02 0.03 0.03 0.06 0.09 0.40 0.28 0.16 0.20 0.20 0.37 0.34 0.34 0.48 0.69 0.96 1.13 0.88 0.75 0.74 0.84 0.98
0.99 1.16 1.08 0.83 0.49 0.32 0.28 0.14 0.05 0.08 0.16 0.30 0.33 0.11 0.11 0.14 0.24 0.30 0.12 0.09 0.06 0.10 0.07 0.06 0.08 0.13 0.16 0.25 0.48 0.41 0.34 0.37 0.38 0.49 0.47 0.52 0.68 0.78 1.13 1.36 1.25 1.25 1.28 1.32
0.58 0.82 0.61 0.30 0.23 0.12 0.04 0.02 0.03 0.03 0.04 0.10 0.26 0.32 0.21 0.17 0.22 0.25 0.20 0.08 0.06 0.05 0.08 0.10 0.17 0.34 0.43 0.55 0.72 1.01 1.07 1.18 1.16 1.26 1.28 1.19 1.15 1.22 1.39 1.41 1.52 1.77 1.68 1.38
0.38 0.35 0.33 0.18 0.06 0.03 0.02 0.04 0.07 0.10 0.16 0.20 0.16 0.11 0.13 0.16 0.12 0.17 0.21 0.25 0.15 0.14 0.17 0.23 0.29 0.42 0.49 0.51 0.64 0.84 1.01 1.07 1.09 1.19 1.31 1.36 1.24 1.16 1.26 1.30 1.17 1.07 1.04 1.03
0.05 0.09 0.12 0.10 0.08 0.06 0.06 0.10 0.17 0.33 0.29 0.19 0.12 0.10 0.08 0.10 0.13 0.15 0.19 0.44 0.47 0.37 0.35 0.42 0.48 0.53 0.44 0.34 0.37 0.57 0.87 1.04 0.92 0.96 1.13 1.18 1.15 1.02 1.04 1.05 1.03 1.00 0.90 0.89
0.08 0.12 0.15 0.13 0.16 0.19 0.27 0.35 0.40 0.38 0.26 0.18 0.21 0.19 0.17 0.16 0.18 0.23 0.30 0.34 0.51 0.52 0.49 0.57 0.77 0.78 0.78 0.82 0.86 1.05 1.13 1.23 1.13 0.97 0.99 1.02 0.97 0.91 0.83 0.78 0.76 0.80 0.80 0.78
0.13 0.22 0.24 0.27 0.44 0.52 0.43 0.32 0.26 0.21 0.23 0.25 0.24 0.26 0.35 0.32 0.39 0.43 0.47 0.40 0.45 0.60 0.76 0.98 1.19 1.20 1.18 1.16 1.05 1.06 1.03 1.01 0.99 0.94 0.81 0.80 0.78 0.76 0.79 0.78 0.72 0.69 0.69 0.65
0.16 0.30 0.38 0.43 0.42 0.35 0.29 0.30 0.33 0.35 0.41 0.43 0.46 0.52 0.55 0.62 0.63 0.76 0.81 0.80 1.01 1.08 1.42 1.24 1.17 1.14 1.08 1.05 0.87 0.81 0.81 0.77 0.74 0.80 0.73 0.65 0.63 0.62 0.64 0.62 0.55 0.51 0.54 0.63
0.26 0.25 0.26 0.23 0.21 0.28 0.31 0.35 0.33 0.39 0.52 0.54 0.65 0.82 0.96 1.19 1.18 1.21 1.17 1.21 1.35 1.28 1.10 0.89 0.71 0.69 0.76 0.74 0.64 0.59 0.67 0.69 0.64 0.61 0.58 0.50 0.45 0.42 0.41 0.46 0.49 0.56 0.60 0.59
0.55 0.52 0.49 0.47 0.53 0.59 0.66 0.77 0.72 0.90 1.15 1.09 0.94 1.02 1.05 1.23 1.22 1.19 1.04 1.07 1.27 0.90 0.62 0.48 0.38 0.38 0.38 0.45 0.49 0.52 0.59 0.62 0.60 0.59 0.57 0.55 0.52 0.49 0.52 0.54 0.53 0.54 0.59 0.57
0.69 0.66 0.74 0.75 0.69 0.89 1.08 0.99 0.80 0.81 0.82 0.83 0.82 0.83 0.75 0.85 0.74 0.64 0.65 0.70 0.79 0.63 0.52 0.37 0.26 0.22 0.20 0.25 0.31 0.40 0.44 0.50 0.57 0.62 0.69 0.75 0.76 0.69 0.59 0.50 0.47 0.48 0.50 0.52
0.67 0.62 0.62 0.63 0.57 0.64 0.79 0.79 0.69 0.59 0.61 0.65 0.67 0.67 0.56 0.56 0.49 0.38 0.40 0.37 0.26 0.24 0.27 0.31 0.27 0.21 0.23 0.25 0.29 0.36 0.43 0.51 0.57 0.61 0.62 0.64 0.69 0.67 0.62 0.55 0.51 0.49 0.46 0.45
0.62 0.59 0.61 0.61 0.45 0.31 0.42 0.60 0.47 0.47 0.44 0.46 0.43 0.37 0.26 0.23 0.28 0.21 0.18 0.16 0.13 0.11 0.10 0.12 0.16 0.17 0.24 0.31 0.34 0.40 0.45 0.49 0.48 0.53 0.54 0.55 0.59 0.60 0.60 0.54 0.53 0.49 0.46 0.42
0.54 0.53 0.55 0.50 0.40 0.47 0.43 0.40 0.28 0.27 0.19 0.18 0.17 0.14 0.12 0.12 0.23 0.18 0.11 0.10 0.10 0.13 0.16 0.13 0.14 0.18 0.33 0.37 0.38 0.38 0.39 0.41 0.42 0.46 0.46 0.48 0.48 0.51 0.52 0.51 0.50 0.50 0.47 0.42
0.45 0.45 0.47 0.42 0.41 0.36 0.31 0.22 0.21 0.20 0.14 0.15 0.19 0.18 0.16 0.15 0.16 0.15 0.15 0.16 0.15 0.15 0.23 0.26 0.28 0.29 0.34 0.38 0.40 0.38 0.37 0.32 0.33 0.36 0.40 0.41 0.42 0.43 0.45 0.46 0.47 0.49 0.49 0.47
0.39 0.36 0.27 0.21 0.21 0.21 0.23 0.23 0.21 0.21 0.22 0.24 0.29 0.25 0.23 0.24 0.22 0.21 0.24 0.27 0.29 0.30 0.34 0.36 0.33 0.32 0.32 0.34 0.33 0.31 0.33 0.32 0.32 0.31 0.31 0.32 0.34 0.36 0.39 0.42 0.42 0.43 0.44 0.44